Location: Poprad
(49.0500°N, 20.3000°E)
Time: 14:12:38
(UTC+02:00)

AO-73 - Pass Details

Date: 26 April 2024
Orbit: 559 x 625 km, 97.7° (Epoch: 25 May)

Event Time Altitude Azimuth Distance (km) Brightness Sun altitude
Rises 03:09:39 0° 22° (NNE) 2,920 ? -18.8°
Reaches altitude 10° 03:12:05 10° 33° (NNE) 2,012 ? -18.5°
Maximum altitude 03:15:58 30° 95° (E) 1,132 ? -18.1°
Drops below altitude 10° 03:19:48 10° 157° (SSE) 1,997 ? -17.7°
Enters shadow 03:19:56 - 158° (SSE) 2,043 ? -17.7°
